Location: Mareuil
(47.2931°N, 1.3290°E)
Time: 10:53:23
(UTC+00:00)

Daily predictions for brighter satellites

Satellite Brightness Start Highest point End
(mag) Time Altitude Azimuth Time Altitude Azimuth Time Altitude Azimuth
COSMOS 2406 4.1 19:52:36 10° SSE 19:57:21 27° ESE 20:02:06 10° NE
Cosmos 1980 Rocket 2.4 19:53:15 10° NNW 19:58:58 74° WSW 20:04:36 10° SSE
Cosmos 1782 2.9 19:55:48 10° SSE 19:59:08 44° E 20:02:31 10° NNE
Okean-O 3.6 19:55:49 10° SE 19:59:42 32° ENE 20:03:35 10° N
CZ-4B R/B 4.3 19:55:54 10° S 19:59:53 64° WSW 20:03:54 10° NNW
CZ-4 R/B 1.5 19:56:20 10° S 19:59:56 68° WSW 20:03:33 10° NNW
MetOp-B 4.2 19:54:55 10° SSE 20:00:14 70° ENE 20:05:34 10° N
Cosmos 724 4.4 19:54:12 10° SSW 20:00:14 89° ESE 20:06:12 10° NE
CSL-04 Rocket 4.5 19:59:41 10° S 20:05:03 54° W 20:10:22 10° NNW
ASTEX 1 4.1 20:01:10 10° S 20:06:02 59° W 20:10:57 10° NNW
Spot 2 Rocket 3.9 20:02:51 10° SE 20:07:37 46° ENE 20:12:25 10° N
Cosmos 1725 Rocket 4.0 20:02:49 10° S 20:09:03 76° E 20:15:18 10° NNE
Cosmos 2333 Rocket 3.2 20:05:46 10° NNW 20:10:56 34° NE 20:16:05 10° ESE
ATLAS 3B R/B 4.0 20:04:36 10° NW 20:11:41 41° WSW 20:18:20 10° S
ERS-1 Rocket 3.1 20:08:35 10° S 20:13:36 80° WSW 20:18:38 10° NNW
USA 305 4.1 20:14:45 10° WNW 20:18:17 29° SW 20:21:31 10° SSE
Tsikada Rocket 4.1 20:12:38 10° N 20:18:47 65° ENE 20:24:53 10° SSE
Cosmos 2016 Rocket 4.0 20:17:24 10° S 20:23:40 87° E 20:29:53 10° N
Cosmos 2360 Rocket 3.6 20:19:56 10° N 20:24:43 27° NE 20:29:29 10° ESE
Cosmos 1461 3.3 20:21:50 10° S 20:25:06 30° ESE 20:28:22 10° NE
CZ-4B R/B 3.4 20:21:02 10° S 20:26:41 77° WSW 20:32:19 10° NNW
CZ-4C R/B 3.4 20:24:41 10° WSW 20:28:48 39° NW 20:34:02 10° NNE
Cosmos 1992 Rocket 4.0 20:24:45 10° S 20:29:52 61° ESE 20:35:00 10° NNE
Meteor 2-12 Rocket 4.5 20:24:56 10° N 20:31:04 88° ENE 20:37:11 10° S
YAOGAN 11 4.3 20:30:32 10° NNE 20:34:53 53° E 20:39:15 10° S
ISS -2.5 20:32:40 10° W 20:35:52 42° N 20:39:05 10° ENE
Cosmos 2219 Rocket 3.8 20:33:34 10° N 20:38:00 23° NE 20:42:27 10° E
Cosmos 1437 Rocket 3.3 20:36:40 15° SSE 20:39:01 32° E 20:42:15 10° NNE
SL-08 R/B 3.4 20:40:23 10° NNE 20:45:14 83° WNW 20:49:57 10° SSW
DEBRIS 3.4 20:42:54 10° W 20:45:46 76° N 20:54:02 10° ENE
Cosmos 2098 Rocket 4.3 20:44:23 17° SE 20:46:56 26° E 20:50:31 10° NE
Cosmos 1626 Rocket 3.5 20:43:10 10° N 20:47:32 71° E 20:51:00 16° SSE
Cosmos 1743 4.4 20:45:34 10° NW 20:48:02 23° W 20:50:29 10° SW
NOSS 3-3 (A) 3.8 20:42:57 10° SW 20:48:06 82° NW 20:54:21 10° NE
Terra 3.0 20:46:53 10° SSW 20:51:16 39° W 20:55:42 10° NNW
Cosmos 2151 3.0 20:51:26 10° N 20:55:32 61° E 20:58:09 21° SSE
Cosmos 2322 Rocket 2.8 20:51:24 10° NNW 20:56:50 45° NE 21:00:46 18° ESE
IRS-1C Rocket 4.5 20:53:40 18° SE 20:57:22 50° ENE 21:02:28 10° N
Cosmos 909 Rocket 4.2 20:52:10 10° SW 20:58:30 81° NW 21:05:02 10° NE
Cosmos 2061 Rocket 4.1 20:52:31 10° S 20:58:45 81° W 21:05:06 10° N
Cosmos 2082 Rocket 3.1 20:54:34 10° SW 21:00:09 54° WNW 21:05:46 10° NNE
USA 306 4.3 20:59:51 10° WNW 21:02:07 19° NNW 21:03:49 10° NNE
Cosmos 1375 Rocket 4.5 21:00:12 10° SSW 21:06:38 72° ESE 21:13:11 10° NE
CZ-4B R/B 2.4 21:09:42 29° SSE 21:11:17 76° ENE 21:14:45 10° N
USA 186 2.7 21:11:04 18° SSW 21:12:38 34° W 21:15:12 10° NNW
Okean O Rocket 2.5 21:11:14 12° S 21:14:56 44° W 21:19:04 10° NNW
NOSS 3-3 (C) 4.2 21:14:53 10° SW 21:20:06 63° NW 21:26:25 10° NE
Cosmos 1805 2.9 21:18:17 10° N 21:21:31 56° ENE 21:22:21 40° SE
DELTA 2 R/B (1) 4.2 21:16:55 10° WSW 21:21:59 36° S 21:24:09 26° SE
Cosmos 2278 3.7 21:17:14 10° NNW 21:22:59 89° NE 21:26:23 26° SSE
Meteor 1-5 Rocket 4.4 21:20:13 10° N 21:25:58 67° ENE 21:29:21 26° SSE
Cosmos 1544 Rocket 4.0 21:22:20 10° SSW 21:26:37 58° WNW 21:30:54 10° N
SL-16 R/B 2.4 21:21:50 10° NNW 21:27:29 68° WSW 21:30:55 24° S
CZ-2C R/B 1.9 21:27:14 54° ESE 21:27:31 60° ENE 21:30:17 10° N
Okean 1-7 Rocket 3.7 21:24:14 10° N 21:28:40 60° ENE 21:30:35 32° SE
NOSS 3 (A) 4.1 21:29:17 10° NW 21:31:38 77° NE 21:31:48 71° E
NOSS 3-4 (A) 3.8 21:26:58 10° NW 21:33:43 86° NE 21:38:39 25° SE
NOSS 3-4 (C) 3.8 21:27:35 10° NW 21:34:21 85° NE 21:39:17 25° SE
Cosmos-2242 4.3 21:34:03 23° E 21:34:25 23° E 21:37:41 10° NE
Okean-O 4.2 21:32:20 11° SSW 21:35:58 28° W 21:39:47 10° NW
Cosmos 2034 Rocket 4.4 21:32:54 26° SSE 21:36:11 48° E 21:42:14 10° NNE
Cosmos 1933 4.0 21:37:02 16° SSW 21:39:50 49° WNW 21:43:34 10° N
Ariane Rocket 3.1 21:38:06 26° S 21:40:57 72° WSW 21:46:02 10° NNW
COSMOS 2406 4.0 21:35:41 10° SW 21:41:18 54° WNW 21:46:57 10° NNE
SPOT 3 Rocket 4.1 21:41:42 21° S 21:44:58 52° W 21:49:59 10° NNW
Nadezhda 4 Rocket 3.9 21:46:46 10° N 21:52:55 88° WSW 21:56:13 29° S
Cosmos 2333 Rocket 2.9 21:49:57 10° NW 21:55:23 47° WSW 21:58:17 26° SSW
Helios 1B rocket 3.5 21:55:11 23° ENE 21:55:34 24° ENE 21:58:26 10° NNE
Cosmos 1763 Rocket 3.5 21:53:12 32° S 21:55:36 64° ESE 22:00:50 10° NNE
Okean 1 2.9 21:56:18 60° S 21:56:53 84° ESE 22:00:30 10° N
Cosmos 1825 Rocket 3.5 21:53:30 10° N 21:57:52 82° W 21:59:17 42° S
Cosmos 1707 3.7 21:59:51 23° NE 21:59:51 23° NE 22:01:21 10° NNE
Cosmos 1536 3.7 21:55:39 10° N 21:58:56 29° ENE 21:59:12 29° E
Cosmos 1833 4.1 21:57:59 28° S 22:01:01 68° ESE 22:06:37 10° NNE
Cosmos 1953 Rocket 3.5 21:59:37 10° N 22:03:57 67° E 22:04:56 50° SE
Cosmos 44 4.0 21:59:12 10° NNW 22:04:30 53° NE 22:06:56 30° ESE
Cosmos 990 Rocket 3.9 21:59:53 10° NNW 22:05:04 78° ENE 22:06:54 41° SE
CZ-4B R/B 4.4 22:05:27 23° SSW 22:07:49 38° W 22:12:20 10° NNW
Cosmos 2360 Rocket 2.4 22:03:31 10° NNW 22:09:08 62° WSW 22:11:23 35° S
Cosmos 2195 Rocket 4.4 22:04:54 10° N 22:11:09 88° E 22:13:53 36° S
USA 290 2.9 22:12:10 44° W 22:12:40 50° WNW 22:15:45 10° NNE
ISS -2.6 22:09:53 10° WNW 22:13:06 42° N 22:14:19 29° ENE
BREEZE-M DEB (TANK) 3.2 22:11:59 10° WNW 22:13:12 24° WNW 22:13:12 24° WNW
Cosmos 2058 Rocket 3.2 22:14:25 49° ESE 22:14:55 53° E 22:19:08 10° NNE
Cosmos 2026 Rocket 4.0 22:09:08 10° N 22:15:33 81° E 22:18:17 37° SSE
Cosmos 2333 4.4 22:11:12 10° NNW 22:16:53 65° WSW 22:19:00 38° S
Cosmos 1627 Rocket 4.5 22:12:49 10° N 22:19:15 82° E 22:21:56 38° SSE
Helios 1A 2.7 22:18:23 10° NNE 22:22:17 70° ESE 22:22:30 68° SE
Cosmos 2219 Rocket 2.2 22:16:53 10° NNW 22:22:34 77° WSW 22:24:29 43° S
Cosmos 2098 Rocket 4.5 22:20:59 16° SW 22:24:08 34° WNW 22:28:01 10° N
KORONAS-FOTON 4.3 22:25:06 40° ENE 22:25:06 40° ENE 22:27:43 10° NNE
Cosmos 1975 4.2 22:22:24 10° NNE 22:25:24 23° ENE 22:25:24 23° ENE
Cosmos 1076 Rocket 3.9 22:23:00 10° NNW 22:27:09 54° W 22:28:03 44° SW
Cosmos 841 Rocket 4.4 22:28:15 31° ESE 22:28:26 31° E 22:33:01 10° NE
RESURS DK-1 3.3 22:28:11 10° NNW 22:31:52 35° NE 22:32:35 33° ENE
ARIANE 5 R/B 3.5 22:32:16 35° E 22:33:07 38° ENE 22:37:16 10° N
ALOS 2 3.7 22:33:58 30° E 22:34:49 33° ENE 22:38:45 10° N
Cosmos 2322 Rocket 3.3 22:35:42 10° NW 22:40:43 33° WSW 22:42:34 27° SW
Cosmos 1354 Rocket 4.4 22:37:21 10° NNW 22:42:27 53° WSW 22:43:43 43° SSW
Cosmos 1271 Rocket 3.4 22:46:13 39° NE 22:46:13 39° NE 22:48:39 10° NNE
Cosmos 1766 3.7 22:43:09 10° NNW 22:45:46 44° WNW 22:45:46 44° WNW
Cosmos 1842 3.9 22:47:39 39° NNE 22:47:39 39° NNE 22:49:48 10° NNE
Cosmos 372 Rocket 3.9 22:41:40 10° NNW 22:46:48 80° ENE 22:47:53 56° SE
Spot 4 4.0 22:51:57 51° ESE 22:52:49 61° ENE 22:57:32 10° N
Meteor 2-9 Rocket 4.3 22:49:14 10° N 22:54:36 64° ENE 22:55:56 48° SE
Cosmos 540 Rocket 4.3 22:52:54 22° SW 22:55:54 47° WNW 23:00:53 10° NNE
PSLV R/B 4.4 22:52:14 10° NNE 22:55:59 36° E 22:55:59 36° E
Cosmos 2237 Rocket 3.4 22:54:12 10° NNW 22:59:25 35° NE 23:02:17 22° ESE
BREEZE-M DEB (TANK) 4.5 22:40:42 10° WSW 23:00:16 87° SSE 23:04:34 10° ENE
Aureole 1 Rocket 4.1 22:54:51 10° NNW 23:00:40 65° WSW 23:02:46 43° S
CZ-2C R/B 4.1 22:58:57 21° E 23:01:03 27° ENE 23:05:22 10° N
Cosmos 1092 Rocket 4.4 22:56:54 10° NNW 23:02:54 55° W 23:05:07 37° SSW
ARGOS Delta rocket 4.2 23:00:35 10° NNE 23:05:43 60° E 23:06:31 53° SE
Cosmos 1937 Rocket 3.6 23:03:16 10° NNW 23:08:24 67° ENE 23:09:27 53° ESE
COSMOS 2428 2.6 23:05:03 10° NNW 23:10:47 87° ENE 23:12:11 54° SSE
Cosmos 2227 Rocket 4.0 23:11:04 16° E 23:11:13 16° E 23:14:31 10° ENE
Cosmos-2242 4.2 23:10:18 29° W 23:11:14 32° WNW 23:14:59 10° N
Cosmos 468 Rocket 4.4 23:10:31 36° SW 23:12:30 60° WNW 23:17:43 10° NNE
NOSS 0 Rocket 4.0 23:07:10 10° NNW 23:13:22 74° ENE 23:15:26 43° SE
Meteor 1-11 Rocket 3.9 23:08:47 10° N 23:14:25 62° ENE 23:15:45 48° SE
Meteor 1-10 Rocket 4.4 23:17:23 51° SSE 23:18:40 64° E 23:24:33 10° NNE
MetOp-A 4.4 23:18:10 42° ESE 23:19:08 48° ENE 23:23:39 10° N
Cosmos 2263 Rocket 4.3 23:20:54 11° E 23:21:14 11° E 23:22:59 10° ENE
Cosmos 1812 Rocket 3.4 23:25:18 78° ESE 23:25:20 78° E 23:29:47 10° NNE
Cosmos 1238 Rocket 4.2 23:25:54 29° ENE 23:25:54 29° ENE 23:29:18 10° NNE
Helios 1B rocket 3.8 23:29:08 23° WNW 23:29:08 23° WNW 23:31:25 10° NW
SeaSat 1 4.1 23:28:37 16° E 23:31:38 28° NE 23:35:48 10° N
Cosmos 1470 3.9 23:29:15 10° NNW 23:31:24 30° NW 23:31:24 30° NW
USA 234 3.2 23:26:06 10° ENE 23:32:35 62° SE 23:34:29 45° SSW
Meteor 1-27 Rocket 4.0 23:32:34 47° SE 23:33:42 55° E 23:39:18 10° NNE
CZ-2C R/B 3.5 23:29:01 10° NNE 23:34:41 56° E 23:35:48 48° SE
Cosmos 2221 2.7 23:35:23 59° W 23:35:26 60° W 23:39:37 10° N
ACS3 Solar Sail 3.3 23:31:08 10° NE 23:35:41 22° E 23:37:20 20° ESE
Helios 1B 4.4 23:31:31 10° NNE 23:35:46 89° NE 23:35:46 89° NE
Cosmos 2279 Rocket 4.4 23:37:49 36° SW 23:40:08 54° WNW 23:46:17 10° N
CZ-2C R/B 4.4 23:37:08 10° N 23:41:24 45° WNW 23:42:14 41° W
Cosmos 1898 Rocket 3.8 23:36:48 10° NNW 23:41:47 49° WSW 23:42:13 47° WSW
Cosmos 2297 Rocket 2.1 23:43:29 58° SSE 23:44:20 67° ESE 23:49:57 10° NNE
Meteor 2-20 4.3 23:46:32 53° S 23:48:04 84° E 23:54:12 10° N
ISS -1.1 23:46:42 10° WNW 23:47:15 14° WNW 23:47:15 14° WNW
